Location: Squirrel Cove
(50.1074°N, 124.9139°W)
Time: 14:19:07
(UTC-07:00)

PCSat - Pass Details

Date: 24 May 2022
Orbit: 784 x 795 km, 67.1° (Epoch: 26 June)

Event Time Altitude Azimuth Distance (km) Brightness Sun altitude
Rises 01:25:16 0° 324° (NW) 3,306 13.6 -19.1°
Reaches altitude 10° 01:28:05 10° 337° (NNW) 2,374 13.0 -19.1°
Maximum altitude 01:32:38 26° 34° (NNE) 1,515 11.7 -19.0°
Drops below altitude 10° 01:37:11 10° 91° (E) 2,366 12.1 -19.0°
Sets 01:39:59 0° 103° (ESE) 3,292 12.7 -18.9°
